This demonstration page uses our WeatherBlox Daily Observations layout. Learn more.

Left ArrowRight Arrow

39.01783, -85.05884

Hourly Observations for August 13, 2015

Temp ( °F °C ) Dew Point ( °F °C ) Humidity (%) Winds ( mph kmh ) Pressure ( in mb ) Visibility ( mi km ) Precip ( " mm )
12:52 am 00:52 Clear 63 17.2 57 13.9 81 81 N N/A 30.1 1019 10 16.0934 N/A
1:52 am 01:52 Clear 61 16.1 58 14.4 90 90 N N/A 30.09 1019 10 16.0934 N/A
2:52 am 02:52 Clear 61 16.1 57 13.9 87 87 N N/A 30.09 1019 10 16.0934 N/A
3:52 am 03:52 Partly Cloudy 58 14.4 56 13.3 93 93 N N/A 30.1 1019 10 16.0934 N/A
4:52 am 04:52 Partly Cloudy 62 16.7 59 15 90 90 N N/A 30.11 1020 10 16.0934 N/A
5:52 am 05:52 Mostly Clear 61 16.1 58 14.4 90 90 N N/A 30.11 1020 10 16.0934 N/A
6:52 am 06:52 Mostly Cloudy 60 15.6 58 14.4 93 93 N N/A 30.13 1020 10 16.0934 N/A
7:52 am 07:52 Mostly Cloudy 60 15.6 59 15 96 96 N N/A 30.13 1020 10 16.0934 N/A
8:52 am 08:52 Mostly Cloudy 67 19.4 62 16.7 84 84 N N/A 30.15 1021 9 14.48406 N/A
9:52 am 09:52 Partly Cloudy 71 21.7 61 16.1 71 71 N N/A 30.15 1021 10 16.0934 N/A
10:52 am 10:52 Mostly Sunny 74 23.3 59 15 60 60 S 5 7 30.15 1021 10 16.0934 N/A
11:52 am 11:52 Partly Cloudy 76 24.4 57 13.9 52 52 N N/A 30.15 1021 10 16.0934 N/A
12:52 pm 12:52 Mostly Sunny 76 24.4 55 12.8 48 48 N N/A 30.13 1020 10 16.0934 N/A
1:52 pm 13:52 Mostly Sunny 79 26.1 57 13.9 47 47 N N/A 30.13 1020 10 16.0934 N/A
2:52 pm 14:52 Mostly Sunny 79 26.1 57 13.9 47 47 N N/A 30.12 1020 10 16.0934 N/A
3:52 pm 15:52 Mostly Sunny 80 26.7 58 14.4 47 47 N N/A 30.12 1020 10 16.0934 N/A
4:52 pm 16:52 Mostly Sunny 81 27.2 60 15.6 49 49 WNW 6 9 30.11 1020 10 16.0934 N/A
5:52 pm 17:52 Mostly Sunny 81 27.2 59 15 47 47 VRB 3 6 30.1 1019 10 16.0934 N/A
6:52 pm 18:52 Mostly Sunny 80 26.7 59 15 49 49 N N/A 30.09 1019 10 16.0934 N/A
7:52 pm 19:52 Mostly Sunny 78 25.6 60 15.6 54 54 NNW 5 7 30.1 1019 10 16.0934 N/A
8:52 pm 20:52 Mostly Clear 73 22.8 60 15.6 64 64 N N/A 30.11 1020 10 16.0934 N/A
9:52 pm 21:52 Mostly Clear 73 22.8 60 15.6 64 64 N N/A 30.11 1020 10 16.0934 N/A
10:52 pm 22:52 Mostly Clear 70 21.1 60 15.6 71 71 S 3 6 30.13 1020 10 16.0934 N/A
11:52 pm 23:52 Clear 69 20.6 60 15.6 73 73 SSW 3 6 30.13 1020 10 16.0934 N/A

Powered by AerisWeather